www.pogodaiklimat.ru

Погода и климат >> Архив погоды >> Норвегия >> Маяк Ytteroyane


ПОГОДА на Маяке Ytteroyane

  • Прогноз погоды на Маяке Ytteroyane
  • Монитор погоды на Маяке Ytteroyane

АРХИВ ПОГОДЫ на Маяке Ytteroyane

Время (UTC), дата Ветер
(напр.,м/с)
 
Видим.   Явления Облачность Т
(С)
Тd
(С)
f
(%)
Тe
(С)
Тes
(С)
Комфортность P
(гПа)
Po
(гПа)
Тmin
(С)
Tmax
(С)
R
(мм)
R24
(мм)
S
(см)
22 18.06 Ю 11
{13}
н/о н/о +12.0 +10.1 88 +8 +8 1009.0 1006.0
23 18.06 Ю 10
{13}
н/о н/о +12.0 +10.1 88 +8 +8 1009.1 1006.1
00 19.06 Ю 10
{14}
н/о н/о +11.9 +10.2 89 +8 +8 1009.0 1006.0
01 19.06 Ю 11
{13}
н/о н/о +11.9 +10.0 88 +8 +8 1009.1 1006.1
02 19.06 Ю 11
{13}
н/о н/о +11.9 +10.0 88 +8 +8 1009.1 1006.1
03 19.06 Ю 9
{13}
н/о н/о +11.9 +10.2 89 +8 +8 1009.0 1006.0
04 19.06 Ю 10
{12}
н/о н/о +11.9 +10.0 88 +8 +8 1009.0 1006.0
05 19.06 Ю 9
{11}
н/о н/о +11.9 +10.0 88 +8 +8 1009.2 1006.2
06 19.06 Ю 10
{13}
н/о н/о +12.1 +9.7 85 +8 +8 1009.1 1006.1 +11.8 +12.1
07 19.06 Ю 10
{13}
н/о н/о +12.2 +9.9 86 +9 +9 1009.4 1006.4
08 19.06 Ю 9
{13}
н/о н/о +12.3 +10.2 87 +9 +9 1009.8 1006.8
09 19.06 Ю 8
{11}
н/о н/о +12.4 +10.3 87 +9 +9 1010.2 1007.2
10 19.06 Ю 6
{10}
н/о н/о +12.8 +10.4 85 +10 +10 1010.2 1007.2
11 19.06 Ю 7
{8}
н/о н/о +13.1 +10.3 83 +10 +10 1010.1 1007.1
12 19.06 Ю 6
{13}
н/о н/о +12.9 +10.3 84 +10 +10 1010.0 1007.0
13 19.06 Ю 5
{7}
н/о н/о +13.2 +9.8 80 +11 +11 1009.9 1006.9
14 19.06 Ю 5
{7}
н/о н/о +13.7 +10.3 80 +12 +12 1009.4 1006.4
15 19.06 Ю 5
{7}
н/о н/о +14.0 +10.2 78 +12 +12 1009.1 1006.1
16 19.06 Ю 4
{6}
н/о н/о +13.3 +10.1 81 +12 +12 1008.7 1005.7
17 19.06 Ю 5
{5}
н/о н/о +13.2 +10.7 85 +11 +11 1008.4 1005.4
18 19.06 ЮВ 2
{7}
н/о н/о +12.9 +10.4 85 +12 +12 1008.0 1005.0 +12.1 +14.1
19 19.06 Ю 2
{3}
н/о н/о +13.1 +10.3 83 +12 +12 1007.5 1004.5
20 19.06 ЮВ 1
{2}
н/о н/о +13.1 +9.6 79 +13 +13 1007.4 1004.4
21 19.06 штиль 0
{2}
н/о н/о +13.3 +9.6 78 +13 +13 1006.9 1003.9
22 19.06 штиль 0
{1}
н/о н/о +13.2 +9.5 78 +13 +13 1006.5 1003.5
23 19.06 СЗ 1
{2}
н/о н/о +12.5 +10.2 86 +12 +12 1005.9 1002.9
00 20.06 СЗ 3
{3}
н/о н/о +12.3 +10.2 87 +11 +11 1005.1 1002.1
01 20.06 СЗ 3
{4}
н/о н/о +12.3 +9.9 85 +11 +11 1005.0 1002.0
02 20.06 С 2
{4}
н/о н/о +12.4 +10.3 87 +11 +11 1004.6 1001.6
03 20.06 З 3
{5}
н/о н/о +12.0 +10.3 89 +10 +10 1004.3 1001.3
04 20.06 З 1
{3}
н/о н/о +12.0 +10.4 90 +12 +12 1004.1 1001.1
05 20.06 ЮЗ 1
{2}
н/о н/о +12.1 +10.5 90 +12 +12 1004.2 1001.2
06 20.06 ЮЗ 2
{5}
н/о н/о +12.3 +10.5 89 +11 +11 1004.1 1001.1 +11.9 +13.3
07 20.06 Ю 3
{4}
н/о н/о +12.2 +10.6 90 +11 +11 1004.3 1001.3
08 20.06 З 2
{3}
н/о н/о +12.1 +10.5 90 +11 +11 1004.3 1001.3
09 20.06 З 1
{2}
н/о н/о +12.6 +10.5 87 +13 +13 1004.2 1001.2
10 20.06 ЮЗ 2
{2}
н/о н/о +12.8 +10.5 86 +12 +12 1004.7 1001.7
11 20.06 Ю 2
{2}
н/о н/о +12.7 +10.8 88 +12 +12 1004.7 1001.7
12 20.06 Ю 2
{4}
н/о н/о +12.9 +10.8 87 +12 +12 1004.8 1001.8
13 20.06 Ю 2
{3}
н/о н/о +12.8 +10.5 86 +12 +12 1004.7 1001.7
14 20.06 Ю 3
{4}
н/о н/о +12.9 +10.3 84 +12 +12 1004.7 1001.7
15 20.06 Ю 4
{5}
н/о н/о +12.9 +10.1 83 +11 +11 1004.6 1001.6
16 20.06 Ю 6
{7}
н/о н/о +12.7 +10.6 87 +10 +10 1004.7 1001.7
17 20.06 Ю 7
{8}
н/о н/о +12.6 +10.8 89 +10 +10 1004.6 1001.6
18 20.06 Ю 7
{9}
н/о н/о +12.6 +10.3 86 +10 +10 1004.5 1001.5 +12.0 +13.4
19 20.06 Ю 8
{10}
н/о н/о +12.9 +10.3 84 +10 +10 1004.4 1001.4
20 20.06 Ю 7
{9}
н/о н/о +12.9 +9.7 81 +10 +10 1004.3 1001.3
21 20.06 ЮЗ 6
{12}
н/о н/о +12.2 +9.9 86 +9 +9 1004.7 1001.7
22 20.06 ЮЗ 8
{12}
н/о н/о +12.0 +9.9 87 +9 +9 1004.7 1001.7
23 20.06 ЮЗ 7
{10}
н/о н/о +11.4 +9.0 85 +8 +8 1005.5 1002.5
00 21.06 Ю 7
{12}
н/о н/о +11.4 +8.4 82 +8 +8 1005.8 1002.8
01 21.06 Ю 8
{10}
н/о н/о +11.4 +8.3 81 +8 +8 1005.9 1002.9
02 21.06 Ю 10
{12}
н/о н/о +11.6 +8.5 81 +8 +8 1005.7 1002.7
03 21.06 Ю 11
{13}
н/о н/о +11.7 +8.6 81 +8 +8 1005.5 1002.5
04 21.06 Ю 11
{16}
н/о н/о +11.6 +8.6 82 +8 +8 1005.1 1002.1
05 21.06 Ю 8
{16}
н/о н/о +11.5 +9.1 85 +8 +8 1005.8 1002.8
06 21.06 Ю 9
{16}
н/о н/о +11.8 +8.5 80 +8 +8 1006.0 1003.0 +11.2 +13.0
07 21.06 Ю 9
{11}
н/о н/о +12.0 +8.7 80 +9 +9 1006.3 1003.3
08 21.06 Ю 11
{14}
н/о н/о +12.2 +8.5 78 +8 +8 1006.4 1003.4
09 21.06 Ю 10
{16}
н/о н/о +11.9 +9.6 86 +8 +8 1007.0 1004.0
10 21.06 Ю 10
{14}
н/о н/о +12.3 +9.0 80 +9 +9 1007.4 1004.4
11 21.06 Ю 10
{12}
н/о н/о +11.8 +8.8 82 +8 +8 1007.7 1004.7
12 21.06 ЮЗ 10
{16}
н/о н/о +12.1 +8.6 79 +8 +8 1008.2 1005.2
13 21.06 Ю 8
{12}
н/о н/о +11.6 +8.8 83 +8 +8 1008.9 1005.9
14 21.06 ЮЗ 8
{10}
н/о н/о +12.0 +8.7 80 +9 +9 1009.3 1006.3
15 21.06 ЮЗ 7
{10}
н/о н/о +12.2 +9.0 81 +9 +9 1009.7 1006.7
16 21.06 ЮЗ 6
{9}
н/о н/о +11.1 +7.2 77 +8 +8 1010.2 1007.1
17 21.06 ЮЗ 5
{9}
н/о н/о +11.4 +7.7 78 +9 +9 1010.4 1007.3
18 21.06 ЮЗ 7
{12}
н/о н/о +11.7 +8.2 79 +9 +9 1010.9 1007.9 +10.9 +12.6
19 21.06 ЮЗ 8
{10}
н/о н/о +11.7 +8.4 80 +8 +8 1011.3 1008.2
20 21.06 ЮЗ 8
{9}
н/о н/о +11.4 +8.4 82 +8 +8 1011.8 1008.7
21 21.06 ЮЗ 7
{10}
н/о н/о +11.5 +8.5 82 +8 +8 1012.1 1009.0
22 21.06 З 6
{12}
н/о н/о +11.4 +8.1 80 +8 +8 1012.6 1009.5
23 21.06 З 6
{10}
н/о н/о +10.8 +8.2 84 +8 +8 1013.1 1010.0
00 22.06 З 9
{12}
н/о н/о +11.1 +8.0 81 +7 +7 1013.6 1010.5
01 22.06 З 7
{10}
н/о н/о +11.1 +7.4 78 +8 +8 1014.2 1011.1
02 22.06 З 5
{13}
н/о н/о +10.1 +7.5 84 +7 +7 1015.0 1011.9
03 22.06 З 6
{8}
н/о н/о +10.7 +7.2 79 +8 +8 1015.5 1012.4
04 22.06 З 4
{11}
н/о н/о +9.6 +7.2 85 +7 +7 1016.1 1013.0
05 22.06 З 6
{8}
н/о н/о +11.0 +4.5 64 +8 +8 1016.4 1013.3
06 22.06 ЮЗ 7
{13}
н/о н/о +10.9 +7.4 79 +8 +8 1017.3 1014.2 +9.4 +11.9
07 22.06 ЮЗ 8
{10}
н/о н/о +11.1 +6.9 75 +8 +8 1017.8 1014.7
08 22.06 ЮЗ 9
{11}
н/о н/о +11.2 +6.8 74 +8 +8 1018.3 1015.2
09 22.06 ЮЗ 8
{17}
н/о н/о +11.0 +7.5 79 +7 +7 1018.6 1015.5
10 22.06 ЮЗ 9
{12}
н/о н/о +12.2 +8.1 76 +9 +9 1019.5 1016.4
11 22.06 ЮЗ 9
{12}
н/о н/о +12.0 +7.7 75 +9 +9 1019.8 1016.7
12 22.06 ЮЗ 10
{17}
н/о н/о +12.1 +8.2 77 +9 +9 1020.3 1017.2
13 22.06 ЮЗ 11
{13}
н/о н/о +12.3 +8.2 76 +9 +9 1020.5 1017.4
14 22.06 ЮЗ 10
{13}
н/о н/о +12.6 +8.1 74 +9 +9 1020.8 1017.7
15 22.06 ЮЗ 10
{13}
н/о н/о +12.3 +8.0 75 +9 +9 1020.9 1017.8
16 22.06 Ю 10
{12}
н/о н/о +12.3 +8.4 77 +9 +9 1020.9 1017.8
17 22.06 Ю 10
{13}
н/о н/о +12.2 +8.7 79 +9 +9 1020.7 1017.6
18 22.06 Ю 12
{14}
н/о н/о +12.2 +9.0 81 +8 +8 1020.3 1017.2 +10.3 +12.7
19 22.06 Ю 11
{14}
н/о н/о +12.2 +9.2 82 +8 +8 1020.1 1017.0
20 22.06 Ю 11
{14}
н/о н/о +12.2 +9.6 84 +8 +8 1020.2 1017.1
21 22.06 Ю 11
{16}
н/о н/о +12.1 +10.0 87 +8 +8 1020.4 1017.3
22 22.06 ЮЗ 11
{14}
н/о н/о +12.2 +7.1 71 +9 +9 1020.6 1017.5
23 22.06 ЮЗ 9
{13}
н/о н/о +12.1 +8.0 76 +9 +9 1020.9 1017.8
00 23.06 ЮЗ 10
{16}
н/о н/о +11.9 +8.4 79 +8 +8 1021.1 1018.0
01 23.06 Ю 9
{12}
н/о н/о +11.7 +8.9 83 +8 +8 1021.3 1018.2
02 23.06 ЮЗ 6
{11}
н/о н/о +11.4 +9.2 86 +8 +8 1021.6 1018.5
03 23.06 ЮЗ 5
{7}
н/о н/о +11.3 +9.1 86 +9 +9 1021.8 1018.7
04 23.06 ЮЗ 5
{6}
н/о н/о +11.4 +9.0 85 +9 +9 1022.0 1018.9
05 23.06 З 4
{6}
н/о н/о +11.5 +9.1 85 +9 +9 1022.5 1019.4
06 23.06 ЮЗ 5
{12}
н/о н/о +11.4 +9.0 85 +9 +9 1023.1 1020.0 +10.9 +12.4
07 23.06 ЮЗ 4
{6}
н/о н/о +11.3 +9.2 87 +9 +9 1023.3 1020.2
08 23.06 З 3
{4}
н/о н/о +11.3 +8.4 82 +9 +9 1023.8 1020.7
09 23.06 З 4
{4}
н/о н/о +11.5 +7.6 77 +9 +9 1024.4 1021.3
10 23.06 З 3
{4}
н/о н/о +11.7 +7.8 77 +10 +10 1025.0 1021.9
11 23.06 З 3
{4}
н/о н/о +11.7 +7.2 74 +10 +10 1025.7 1022.6
12 23.06 З 3
{6}
н/о н/о +11.7 +7.2 74 +10 +10 1026.3 1023.2
13 23.06 З 2
{4}
н/о н/о +12.1 +7.0 71 +11 +11 1026.8 1023.7
14 23.06 СЗ 3
{4}
н/о н/о +12.0 +6.9 71 +10 +10 1027.2 1024.1
15 23.06 СЗ 3
{3}
н/о н/о +12.2 +7.1 71 +11 +11 1027.5 1024.4
16 23.06 СЗ 2
{4}
н/о н/о +12.6 +7.3 70 +12 +12 1027.5 1024.4
17 23.06 С 3
{3}
н/о н/о +12.6 +7.3 70 +11 +11 1027.3 1024.2
18 23.06 С 3
{4}
н/о н/о +12.7 +7.6 71 +11 +11 1027.6 1024.5 +10.9 +12.9
19 23.06 С 3
{4}
н/о н/о +12.3 +7.4 72 +11 +11 1027.9 1024.8
20 23.06 С 4
{5}
н/о н/о +12.1 +7.6 74 +10 +10 1028.3 1025.2
21 23.06 С 4
{6}
н/о н/о +11.6 +8.3 80 +9 +9 1028.8 1025.7
22 23.06 С 6
{8}
н/о н/о +11.1 +8.2 82 +8 +8 1029.0 1025.9
23 23.06 С 5
{8}
н/о н/о +11.2 +8.1 81 +9 +9 1029.2 1026.1
00 24.06
{8}
н/о н/о +11.1 +7.8 80 1029.2 1026.1
01 24.06 С 3
{6}
н/о н/о +11.1 +7.8 80 +9 +9 1029.1 1026.0
02 24.06 С 1
{6}
н/о н/о +11.1 +8.2 82 +11 +11 1029.1 1026.0
03 24.06 С 2
{5}
н/о н/о +11.1 +8.3 83 +10 +10 1028.6 1025.5
04 24.06 С 2
{6}
н/о н/о +10.9 +8.3 84 +10 +10 1028.5 1025.4
05 24.06 С 1
{3}
н/о н/о +12.0 +8.1 77 +12 +12 1028.5 1025.4
06 24.06 С 3
{6}
н/о н/о +12.0 +8.5 79 +10 +10 1028.7 1025.6 +10.8 +12.7
07 24.06 С 2
{4}
н/о н/о +12.6 +8.3 75 +12 +12 1028.5 1025.4
08 24.06 С 2
{5}
н/о н/о +13.1 +8.2 72 +12 +12 1028.2 1025.1
09 24.06 С 4
{6}
н/о н/о +12.7 +9.4 80 +11 +11 1028.3 1025.2
10 24.06 С 3
{5}
н/о н/о +12.8 +9.6 81 +11 +11 1028.3 1025.2
11 24.06 С 4
{6}
н/о н/о +13.1 +9.7 80 +11 +11 1028.2 1025.1
12 24.06 С 4
{7}
н/о н/о +13.4 +10.0 80 +12 +12 1028.1 1025.0
13 24.06 С 3
{5}
н/о н/о +13.5 +10.1 80 +12 +12 1028.0 1024.9
14 24.06
{5}
н/о н/о +13.7 +10.3 80 1028.0 1024.9
15 24.06 С 2
{5}
н/о н/о +13.3 +10.5 83 +13 +13 1027.7 1024.6
16 24.06 СВ 1
{4}
н/о н/о +13.5 +10.7 83 +14 +14 1027.6 1024.5
17 24.06 С 2
{3}
н/о н/о +13.5 +10.7 83 +13 +13 1027.6 1024.5
18 24.06 СВ 1
{5}
н/о н/о +14.3 +9.9 75 +15 +15 1027.5 1024.4 +12.0 +14.3
19 24.06 С 2
{3}
н/о н/о +13.7 +10.1 79 +13 +13 1027.5 1024.4
20 24.06 ЮВ 2
{3}
н/о н/о +14.2 +10.0 76 +14 +14 1027.2 1024.1
21 24.06 ЮВ 3
{4}
н/о н/о +13.9 +10.9 82 +13 +13 1026.9 1023.8
22 24.06 В 1
{2}
н/о н/о +14.1 +9.9 76 +14 +14 1026.7 1023.6
23 24.06 В 1
{2}
н/о н/о +13.9 +10.1 78 +14 +14 1026.6 1023.5
00 25.06 СВ 1
{4}
н/о н/о +13.3 +9.9 80 +13 +13 1026.2 1023.1
01 25.06 СВ 1
{2}
н/о н/о +13.2 +10.4 83 +13 +13 1025.5 1022.4
02 25.06 СВ 2
{3}
н/о н/о +13.1 +10.6 85 +12 +12 1025.0 1021.9
03 25.06 В 2
{4}
н/о н/о +13.1 +11.0 87 +12 +12 1024.2 1021.1
04 25.06 СВ 1
{5}
н/о н/о +13.1 +11.0 87 +13 +13 1024.1 1021.0
05 25.06 С 1
{4}
н/о +13.1 +10.8 86 +13 +13 1023.9 1020.8
06 25.06
{5}
н/о +13.1 +11.0 87 1023.9 1020.8 +12.9 +14.6
07 25.06
{03}
н/о 1023.8 1020.7
08 25.06 СВ 1
{3}
н/о н/о +13.2 +11.4 89 +13 +13 1023.9 1020.8
09 25.06 штиль 0
{3}
н/о н/о +13.4 +11.6 89 +13 +13 1023.9 1020.8
10 25.06 СЗ 1
{2}
н/о н/о +13.3 +11.4 88 +13 +13 1024.0 1020.9
11 25.06 С 4
{5}
н/о н/о +13.0 +11.6 91 +11 +11 1023.7 1020.6
12 25.06
{5}
н/о н/о +12.8 +11.4 91 1023.7 1020.6
13 25.06
{7}
н/о н/о +12.9 +11.5 91 1023.7 1020.6
14 25.06 С 4
{7}
н/о н/о +12.9 +11.5 91 +11 +11 1023.5 1020.4
15 25.06
{7}
н/о н/о +12.8 +11.5 92 1023.3 1020.2
16 25.06
{6}
н/о н/о +13.0 +11.6 91 1023.2 1020.1
17 25.06
{7}
н/о н/о +12.8 +11.4 91 1023.1 1020.0
18 25.06 С 5
{8}
н/о н/о +12.8 +11.0 89 +11 +11 1022.7 1019.6
19 25.06 С 6
{9}
н/о н/о +12.5 +10.9 90 +10 +10 1022.7 1019.6
20 25.06 С 4
{9}
н/о н/о +12.7 +11.1 90 +11 +11 1022.7 1019.6

 

Местоположение метеостанции Маяк Ytteroyane (Норвегия): широта 61.57 долгота 4.68 высота над уровнем моря 26 м.

В архиве по умолчанию представлена погода на Маяке Ytteroyane за последнюю неделю. Архивные данные за месяц целиком и за предыдущие месяцы, начиная с января 2011 года, Вы можете получить, выбрав интересующий диапазон дат из раскрывающегося списка и нажав кнопку "Ввод!".


*Определитесь, кто Вы:
робот инопланетянин человек

Внимание! Время в таблицах - всемирное. Для получения местного времени необходимо прибавить поправку, которая равна 1 ч.

Смотрите также архив погоды в соседних городах и на ближайших метеорологических станциях:

Погода в Флоро аэропорту (Норвегия) (19 км)
Погода в Фурунесете (Норвегия) (37 км)
Погода на Маяке Krakenes (Норвегия) (54 км)
Погода во Флурё аэропорту (Норвегия) (61 км)
Погода во Флурё (Норвегия) (67 км)
Погода в Такле (Норвегия) (71 км)
Погода в Фиске (Норвегия) (76 км)
Погода в Сандан аэропорту (Норвегия) (80 км)
Погода в Берген аэропорту (Норвегия) (85 км)
Погода в Федье (Норвегия) (88 км)

Пояснения к столбцам:

Ветер - указаны скорость ветра в м/с - средняя за 10 мин, порывы в срок и между сроками (в фигурных скобках) и направление, откуда дует ветер: С - северный, СВ - северо-восточный, В - восточный, ЮВ - юго-восточный, Ю - южный, ЮЗ - юго-западный, З - западный, СЗ - северо-западный.
Видимость - горизонтальная дальность видимости в метрах или километрах. При видимости от 1 до 10 км при отсутствии осадков обычно наблюдается дымка, при ухудшении видимости до 1 км и менее - туман. В сухую погоду видимость может ухудшаться дымом, пылью или мглою.
Явления - указаны атмосферные явления, наблюдавшиеся в срок или в последний час перед сроком; фигурными скобками обозначены явления, наблюдавшиеся между сроками (за 1-3 часа до срока); квадратными скобками обозначены град или гололедные отложения с указанием их диаметра в мм.
Облачность - указаны через наклонную черту общая и нижняя облачность в баллах и высота нижней границы облаков в метрах; квадратными скобками обозначены формы облаков: Ci - перистые, Cs - перисто-слоистые, Cc - перисто-кучевые, Ac - высококучевые, As - высокослоистые, Sc - слоисто-кучевые, Ns - слоисто-дождевые, Cu - кучевые, Cb - кучево-дождевые. Подробнее классификацию облаков см. в Атласе облаков (PDF).
T - Температура воздуха - температура, измеренная на высоте 2 м над землей.
Td - Температура точки росы - температура, при понижении до которой содержащийся в воздухе водяной пар достигнет насыщения.
f - Относительная влажность воздуха - влажноcть воздуха, измеренная на высоте 2 м над землей.
Te - Эффективная температура - температура, которую ощущает одетый по сезону человек в тени. Характеристика душности погоды. При расчете учитывается влияние влажности воздуха и скорости ветра на теплоощущения человека.
Tes - Эффективная температура на солнце - температура, которую ощущает человек, с поправкой на солнечный нагрев. Характеристика знойности погоды. Зависит от высоты солнца над горизонтом, облачности и скорости ветра. Ночью, в пасмурную погоду, а также при ветре 12 м/с и более поправка равна нулю.
P - Атмосферное давление - приведенное к уровню моря атмосферное давление.
Po - Атмосферное давление - измеренное на уровне метеостанции атмосферное давление.
Tmin - Минимальная температура - минимум температуры воздуха на высоте 2 м над землей.
Tmax - Максимальная температура - максимум температуры воздуха на высоте 2 м над землей.
R - Количество осадков - Количество выпавших осадков за период времени, мм. При наведении курсора мыши на число - период времени, за который выпало указанное количество осадков.
R24 - Количество осадков - Количество выпавших осадков за 24 часа, мм.
S - Снежный покров - Высота снежного покрова, см. При наведении курсора мыши на число - состояние снежного покрова и степень покрытия местности в баллах.